Simultaneous Nadir Overpasses (SNOs) Predictions

Prediction of SNOs between GOES-16 and AQUA Satellite Orbit:

Table of predicted SNOs for the next 14.0 days since TLE Epoch: 12/28/2018
Index Date Time (GOES-16) GOES-16 Lat,Lon AQUA Lat,Lon Distance(km) Time Diff (sec)
1 12/29/2018 18:32:39 0.00, -75.20 0.12, -74.62 65.72 80
2 12/31/2018 18:20:28 0.00, -75.22 0.74, -71.66 404.66 80
3 01/01/2019 06:44:24 0.00, -75.23 0.34, -76.82 181.32 80
4 01/03/2019 06:29:33 0.01, -75.26 -0.29, -73.87 158.30 80
5 01/03/2019 18:53:37 -0.01, -75.27 -0.83, -79.05 430.55 80
6 01/05/2019 06:17:22 0.01, -75.29 -0.92, -70.91 498.34 80
7 01/05/2019 18:41:26 -0.01, -75.31 -0.20, -76.10 90.38 80
8 01/07/2019 18:26:35 -0.01, -75.35 0.44, -73.14 250.38 80
9 01/08/2019 06:50:31 0.01, -75.36 0.64, -78.30 334.78 80
10 01/10/2019 06:35:40 0.00, -75.41 -0.00, -75.35 6.77 80




NCC Satellite Simultaneous Nadir Overpasses (SNOs) Prediction Service
